[[{"header":{"parameterUnit":"m.s-1","parameterCategory":1,"la1":30.2991,"la2":30.254,"lo1":-89.0895,"lo2":-89.0444,"dy":0.0017,"dx":0.0017,"nx":28,"ny":28,"refTime":"2023-09-30T09:00:00:Z","depth":0,"parameterNumber":2,"parameterNumberName":"U-component_of_WINDS"},"data":[0,0,0,0,0,0,0,0,0,0,0,0,0,0,0,0,0,0,0,0,0,0,0,0,0,0,0,0,0,0,0,0,0,0,0,0,0,0,0,0,0,0,0,0,0,0,0,0,0,0,0,0,0,0,0,0,0,0,-5.3792,-5.3792,0,-5.3836,-5.3836,-5.3837,-5.3737,-5.3733,-5.373,-5.3727,-5.3774,-5.3778,-5.3782,0,0,0,0,0,0,0,0,0,0,0,0,0,-5.3623,-5.3627,-5.3791,-5.3792,-5.3793,-5.3836,-5.3836,-5.3837,-5.3737,-5.3733,-5.3729,-5.3726,-5.3773,-5.3778,-5.3783,0,0,0,0,0,0,0,0,0,0,0,0,0,-5.3685,-5.3628,-5.3791,-5.3748,-5.3745,-5.3836,-5.3836,-5.3837,-5.3738,-5.3733,-5.3728,-5.3724,-5.3771,-5.3777,-5.3783,-5.3919,0,0,-5.3803,-5.3806,0,0,0,0,0,0,0,0,-5.3681,-5.3691,-5.3754,-5.3751,-5.3747,-5.3776,-5.3794,-5.3865,-5.3739,-5.3741,-5.3727,-5.3722,-5.3779,-5.3784,-5.3803,-5.3921,-5.3923,-5.3803,-5.3807,-5.381,-5.3812,0,0,0,0,0,0,0,-5.3677,-5.3689,-5.3809,-5.3755,-5.3751,-5.3727,-5.3731,-5.3807,-5.3786,-5.374,-5.3733,-5.3739,-5.3776,-5.3797,-5.3803,-5.3924,-5.3803,-5.3809,-5.3813,-5.3815,-5.4158,-5.4163,0,0,0,0,0,0,-5.3678,-5.3686,-5.3808,-5.381,-5.3702,-5.3734,-5.3738,-5.3772,-5.3785,-5.3782,-5.3744,-5.3735,-5.3789,-5.3796,-5.3805,-5.3966,-5.381,-5.3816,-5.382,-5.4153,-5.4159,-5.4165,0,0,0,0,0,0,-5.3675,-5.369,-5.3806,-5.3746,-5.3759,-5.3742,-5.3781,-5.3775,-5.3796,-5.3788,-5.3783,-5.3769,-5.3785,-5.3796,-5.3892,-5.3966,-5.3819,-5.3825,-5.4146,-5.4155,-5.4162,-5.4289,0,0,0,0,0,0,-5.3671,-5.3689,-5.374,-5.3748,-5.3763,-5.3892,-5.3785,-5.3779,-5.3807,-5.3796,-5.381,-5.3808,-5.3782,-5.3883,-5.3898,-5.3972,-5.383,-5.414,-5.415,-5.4159,-5.4278,-5.43,-5.4319,0,0,0,0,0,-5.3665,-5.3774,-5.3743,-5.3758,-5.3825,-5.3896,-5.3905,-5.3872,-5.3813,-5.3865,-5.386,-5.3808,-5.3955,-5.3893,-5.391,-5.3987,-5.4135,-5.4147,-5.4159,-5.4268,-5.4295,-5.4318,0,0,0,0,0,0,-5.3775,-5.3774,-5.374,-5.3854,-5.3876,-5.3879,-5.3943,-5.3901,-5.3941,-5.3929,-5.3887,-5.3891,-5.3996,-5.4,-5.3932,-5.412,-5.4035,-5.4051,-5.4113,-5.4139,-5.4159,-5.4156,-5.3835,0,0,0,0,0,-5.3813,-5.387,-5.3866,-5.3967,-5.398,-5.396,-5.3989,-5.3963,-5.3984,-5.3993,-5.3994,-5.4017,-5.4069,-5.4104,-5.4151,-5.4278,-5.428,-5.4339,-5.4359,-5.4376,-5.4391,-5.4461,-5.4487,-5.4204,-5.4204,-5.4204,0,0,-5.3891,-5.3897,-5.3936,-5.399,-5.4003,-5.4064,-5.3968,-5.4036,-5.4082,-5.4003,-5.4094,-5.4097,-5.4119,-5.4232,-5.4282,-5.4239,-5.447,-5.4391,-5.4405,-5.441,-5.4476,-5.4502,-5.4526,-5.4212,-5.421,-5.4209,0,0,-5.4065,-5.4075,-5.4162,-5.4178,-5.42,-5.4186,-5.4207,-5.4217,-5.4215,-5.4306,-5.4249,-5.4303,-5.4392,-5.4411,-5.4433,-5.4617,-5.4571,-5.4633,-5.4741,-5.4809,-5.4832,-5.4851,-5.4919,-5.4943,-5.4647,-5.4648,-5.4648,0,-5.416,-5.4249,-5.4212,-5.4285,-5.4311,-5.4242,-5.4331,-5.4348,-5.4385,-5.4405,-5.4356,-5.4468,-5.4479,-5.4596,-5.4641,-5.466,-5.4684,-5.4632,-5.4831,-5.4851,-5.4868,-5.4932,-5.4958,-5.4655,-5.4654,-5.4653,-5.4653,0,-5.4366,-5.4428,-5.4496,-5.4533,-5.4567,-5.4647,-5.4623,-5.4662,-5.4632,-5.4624,-5.4719,-5.4729,-5.4778,-5.4804,-5.4775,-5.4918,-5.4891,-5.4838,-5.4752,-5.4904,-5.4963,-5.4987,-5.4666,-5.4663,-5.4661,-5.4659,0,0,-5.461,-5.4627,-5.4653,-5.467,-5.469,-5.4738,-5.4816,-5.4863,-5.4898,-5.4926,-5.4991,-5.507,-5.5021,-5.5046,-5.5019,-5.5079,-5.5227,-5.5018,-5.5018,-5.5058,-5.5387,-5.5428,-5.5457,-5.5196,-5.5201,-5.5204,-5.5385,0,-5.4784,-5.4917,-5.4887,-5.5019,-5.5078,-5.5015,-5.5083,-5.5103,-5.5098,-5.5148,-5.5142,-5.5199,-5.5129,-5.5144,-5.52,-5.5197,-5.5292,-5.5183,-5.5258,-5.5261,-5.5256,-5.5487,-5.5531,-5.5701,-5.5408,-5.5412,-5.5415,0,-5.5004,-5.5041,-5.518,-5.5192,-5.5215,-5.5277,-5.5319,-5.5367,-5.539,-5.5382,-5.5411,-5.5373,-5.5452,-5.5365,-5.5474,-5.54,-5.5429,-5.5432,-5.5438,-5.5445,-5.5348,-5.5502,-5.5754,-5.5781,-5.5451,-5.5448,-5.5445,0,-5.5171,-5.5256,-5.535,-5.5366,-5.5382,-5.5427,-5.5436,-5.5454,-5.5485,-5.5522,-5.5543,-5.5589,-5.5614,-5.5651,-5.5628,-5.5566,-5.5742,-5.5652,-5.5739,-5.574,-5.5779,-5.5778,-5.6042,-5.5796,-5.5796,-5.5795,-5.5795,0,-5.537,-5.5457,-5.5425,-5.5483,-5.558,-5.5545,-5.5642,-5.5643,-5.566,-5.5718,-5.5666,-5.5722,-5.5687,-5.574,-5.5723,-5.5817,-5.5828,-5.5825,-5.582,-5.5831,-5.5832,-5.585,-5.5838,-5.5802,-5.5801,-5.5799,-5.5798,0,-5.5573,-5.5555,-5.5653,-5.5661,-5.5665,-5.5736,-5.5743,-5.5798,-5.5789,-5.5864,-5.5879,-5.5866,-5.5927,-5.5907,-5.5971,-5.596,-5.608,-5.6058,-5.6073,-5.6068,-5.6156,-5.6149,-5.6443,-5.648,-5.6209,-5.6212,-5.6214,0,-5.5701,-5.5767,-5.5782,-5.5817,-5.583,-5.5887,-5.5919,-5.5887,-5.5923,-5.5955,-5.6006,-5.6062,-5.6105,-5.6205,-5.6202,-5.6252,-5.6232,-5.6332,-5.624,-5.6249,-5.6236,-5.6233,-5.624,-5.6351,-5.6354,-5.6357,-5.6359,0,-5.5931,-5.5919,-5.5967,-5.6013,-5.6052,-5.6087,-5.6116,-5.6148,-5.6118,-5.6161,-5.6223,-5.6256,-5.6323,-5.638,-5.6426,-5.6436,-5.6394,-5.6388,-5.6411,-5.6423,-5.643,-5.6429,-5.6125,-5.6381,-5.6379,-5.6377,-5.6376,-5.6375,-5.6102,-5.6158,-5.6179,-5.6234,-5.6253,-5.6283,-5.6335,-5.6333,-5.6383,-5.6435,-5.6413,-5.6485,-5.6507,-5.6564,-5.6581,-5.6637,-5.6599,-5.6632,-5.664,-5.6649,-5.6662,-5.642,-5.6645,-5.6644,-5.6644,-5.6643,-5.6643,0,-5.6331,-5.6341,-5.6392,-5.6436,-5.648,-5.6436,-5.6467,-5.6507,-5.657,-5.6595,-5.6639,-5.671,-5.6766,-5.6768,-5.682,-5.6864,-5.6847,-5.6879,-5.6876,-5.688,-5.6692,-5.6667,-5.6893,-5.6893,-5.6893,-5.6893,-5.6893,-5.6893,-5.6455,-5.6549,-5.654,-5.6644,-5.6653,-5.6723,-5.6745,-5.6772,-5.6791,-5.6874,-5.692,-5.692,-5.6936,-5.6989,-5.7039,-5.7038,-5.706,-5.7101,-5.7093,-5.6918,-5.6893,-5.6869,-5.6846,-5.7106,-5.7106,-5.7277,-5.7278,-5.728]},{"header":{"parameterUnit":"m.s-1","parameterCategory":1,"la1":30.2991,"la2":30.254,"lo1":-89.0895,"lo2":-89.0444,"dy":0.0017,"dx":0.0017,"nx":28,"ny":28,"refTime":"2023-09-30T09:00:00:Z","depth":0,"parameterNumber":3,"parameterNumberName":"V-component_of_WINDS"},"data":[0,0,0,0,0,0,0,0,0,0,0,0,0,0,0,0,0,0,0,0,0,0,0,0,0,0,0,0,0,0,0,0,0,0,0,0,0,0,0,0,0,0,0,0,0,0,0,0,0,0,0,0,0,0,0,0,0,0,-2.0801,-2.0801,0,-2.0789,-2.0788,-2.0788,-2.0741,-2.074,-2.0739,-2.0738,-2.0726,-2.0726,-2.0727,0,0,0,0,0,0,0,0,0,0,0,0,0,-2.0785,-2.0786,-2.0801,-2.0801,-2.0801,-2.0789,-2.0788,-2.0788,-2.0741,-2.074,-2.0739,-2.0738,-2.0725,-2.0726,-2.0727,0,0,0,0,0,0,0,0,0,0,0,0,0,-2.0784,-2.0786,-2.0801,-2.0776,-2.0774,-2.0789,-2.0788,-2.0788,-2.0742,-2.074,-2.0738,-2.0737,-2.0725,-2.0726,-2.0727,-2.0765,0,0,-2.073,-2.073,0,0,0,0,0,0,0,0,-2.0784,-2.0785,-2.078,-2.0778,-2.0775,-2.0765,-2.0778,-2.078,-2.0742,-2.0754,-2.0738,-2.0736,-2.074,-2.074,-2.0741,-2.0765,-2.0764,-2.073,-2.0731,-2.0731,-2.0731,0,0,0,0,0,0,0,-2.0785,-2.0785,-2.0796,-2.078,-2.0777,-2.0765,-2.0764,-2.0778,-2.0756,-2.0753,-2.0749,-2.0748,-2.0738,-2.074,-2.074,-2.0764,-2.073,-2.0731,-2.0732,-2.0732,-2.0818,-2.0819,0,0,0,0,0,0,-2.0788,-2.0786,-2.0797,-2.0796,-2.0776,-2.0767,-2.0765,-2.077,-2.0756,-2.0752,-2.075,-2.0746,-2.0739,-2.0739,-2.0739,-2.0783,-2.0731,-2.0732,-2.0733,-2.0816,-2.0818,-2.082,0,0,0,0,0,0,-2.0788,-2.079,-2.0797,-2.079,-2.079,-2.0769,-2.0775,-2.077,-2.0772,-2.0754,-2.0749,-2.0756,-2.0738,-2.0738,-2.0759,-2.0782,-2.0733,-2.0733,-2.0814,-2.0817,-2.0819,-2.0871,0,0,0,0,0,0,-2.0788,-2.079,-2.0804,-2.079,-2.079,-2.0817,-2.0776,-2.0771,-2.0774,-2.0769,-2.0758,-2.0754,-2.0736,-2.0758,-2.076,-2.0782,-2.0734,-2.0812,-2.0815,-2.0818,-2.0867,-2.0875,-2.0881,0,0,0,0,0,-2.0787,-2.082,-2.0805,-2.0807,-2.0808,-2.0819,-2.0819,-2.0797,-2.0776,-2.079,-2.0778,-2.0755,-2.0779,-2.076,-2.0762,-2.0786,-2.081,-2.0814,-2.0818,-2.0864,-2.0873,-2.0881,0,0,0,0,0,0,-2.0837,-2.0818,-2.0801,-2.083,-2.0826,-2.0811,-2.0828,-2.0808,-2.0811,-2.0806,-2.0779,-2.0777,-2.0802,-2.0796,-2.0775,-2.0821,-2.0791,-2.0795,-2.0825,-2.0834,-2.0841,-2.0842,-2.0735,0,0,0,0,0,-2.0852,-2.0862,-2.0844,-2.0871,-2.087,-2.085,-2.0853,-2.0837,-2.0832,-2.083,-2.082,-2.0816,-2.0823,-2.0828,-2.0833,-2.0865,-2.0862,-2.0882,-2.089,-2.0896,-2.09,-2.0916,-2.0925,-2.0832,-2.0832,-2.0832,0,0,-2.0882,-2.0872,-2.088,-2.0881,-2.0876,-2.0887,-2.0849,-2.0862,-2.087,-2.0832,-2.0851,-2.0844,-2.0837,-2.0864,-2.0876,-2.086,-2.0925,-2.09,-2.0905,-2.0906,-2.0921,-2.093,-2.0938,-2.0835,-2.0834,-2.0834,0,0,-2.0942,-2.0936,-2.0957,-2.0953,-2.0946,-2.0932,-2.0937,-2.0924,-2.0917,-2.0936,-2.0908,-2.0916,-2.0929,-2.0925,-2.0925,-2.0983,-2.0961,-2.0985,-2.1023,-2.104,-2.1047,-2.1053,-2.1074,-2.1082,-2.0989,-2.0989,-2.099,0,-2.098,-2.0995,-2.0971,-2.0986,-2.0987,-2.0953,-2.0975,-2.0972,-2.0967,-2.0968,-2.095,-2.0964,-2.0958,-2.0983,-2.0997,-2.0998,-2.1003,-2.0987,-2.1048,-2.1054,-2.1059,-2.1079,-2.1087,-2.0992,-2.0992,-2.0992,-2.0991,0,-2.1043,-2.1054,-2.1072,-2.1068,-2.1071,-2.1089,-2.1067,-2.1073,-2.1056,-2.1044,-2.1063,-2.1054,-2.1056,-2.1061,-2.1045,-2.1084,-2.1074,-2.1053,-2.1021,-2.1072,-2.1089,-2.1097,-2.0997,-2.0996,-2.0995,-2.0994,0,0,-2.1135,-2.1116,-2.1123,-2.1121,-2.111,-2.1118,-2.1134,-2.1136,-2.1141,-2.1139,-2.1152,-2.1162,-2.1142,-2.1142,-2.1125,-2.1139,-2.1185,-2.1116,-2.1115,-2.1129,-2.1228,-2.1244,-2.1253,-2.1171,-2.1172,-2.1173,-2.1228,0,-2.1193,-2.122,-2.1197,-2.1229,-2.1238,-2.1205,-2.1219,-2.1214,-2.1203,-2.1209,-2.1197,-2.1205,-2.1177,-2.1177,-2.1189,-2.1177,-2.1205,-2.1173,-2.1183,-2.1183,-2.1186,-2.1262,-2.128,-2.1333,-2.1235,-2.1236,-2.1237,0,-2.1263,-2.1263,-2.1295,-2.1281,-2.1285,-2.1298,-2.1297,-2.1304,-2.1297,-2.1288,-2.1287,-2.1266,-2.1281,-2.125,-2.127,-2.1249,-2.1251,-2.1246,-2.1247,-2.1248,-2.1214,-2.1265,-2.1349,-2.1357,-2.1248,-2.1247,-2.1246,0,-2.1328,-2.1336,-2.1356,-2.1354,-2.1339,-2.1349,-2.1342,-2.1334,-2.1336,-2.1336,-2.1337,-2.1338,-2.1339,-2.1341,-2.1321,-2.13,-2.1343,-2.1311,-2.1336,-2.1337,-2.1347,-2.1347,-2.1433,-2.1349,-2.1348,-2.1348,-2.1348,0,-2.1394,-2.1415,-2.1384,-2.1397,-2.1419,-2.1393,-2.1416,-2.1406,-2.1398,-2.1408,-2.138,-2.139,-2.1362,-2.1369,-2.1353,-2.1372,-2.1373,-2.1366,-2.1361,-2.1368,-2.1369,-2.137,-2.1366,-2.135,-2.135,-2.135,-2.1349,0,-2.1471,-2.1451,-2.147,-2.1453,-2.1449,-2.1466,-2.1452,-2.1463,-2.1449,-2.1462,-2.1463,-2.1442,-2.1448,-2.1428,-2.1431,-2.1421,-2.1449,-2.1438,-2.1451,-2.1448,-2.1475,-2.1473,-2.1565,-2.1575,-2.1484,-2.1485,-2.1485,0,-2.1515,-2.153,-2.1514,-2.1518,-2.1514,-2.1521,-2.1523,-2.1498,-2.1501,-2.1494,-2.1505,-2.1509,-2.1511,-2.1523,-2.1508,-2.151,-2.15,-2.1532,-2.15,-2.1507,-2.1501,-2.15,-2.1501,-2.1539,-2.154,-2.1541,-2.1542,0,-2.1595,-2.1584,-2.1588,-2.1588,-2.1591,-2.159,-2.1587,-2.1592,-2.1565,-2.157,-2.1576,-2.1577,-2.158,-2.1585,-2.1583,-2.1577,-2.1555,-2.1552,-2.1558,-2.1565,-2.1572,-2.1569,-2.1469,-2.155,-2.1549,-2.1548,-2.1548,-2.1548,-2.1657,-2.1668,-2.1659,-2.1664,-2.1658,-2.1656,-2.1665,-2.1652,-2.1657,-2.1657,-2.1641,-2.1651,-2.1642,-2.1639,-2.1634,-2.1641,-2.1626,-2.1635,-2.1637,-2.164,-2.1645,-2.1571,-2.1641,-2.1641,-2.164,-2.164,-2.164,0,-2.1735,-2.1727,-2.1732,-2.1728,-2.1732,-2.171,-2.1705,-2.171,-2.1718,-2.1712,-2.1714,-2.1721,-2.1725,-2.171,-2.1712,-2.172,-2.171,-2.1721,-2.1721,-2.172,-2.1658,-2.1652,-2.1729,-2.1729,-2.1729,-2.1729,-2.1729,-2.1729,-2.1777,-2.1796,-2.1783,-2.1799,-2.179,-2.1799,-2.1798,-2.1795,-2.179,-2.1799,-2.1802,-2.1792,-2.1782,-2.1783,-2.1785,-2.178,-2.1783,-2.1798,-2.179,-2.1733,-2.1724,-2.1716,-2.171,-2.1798,-2.1798,-2.1851,-2.1851,-2.1852]}]]